Location: Rancho Del Sol Observatory
(38.7214°N, 120.6350°W)
Time: 16:57:36
(UTC-08:00)

Courier 1B Rocket - Pass Details

Date: 01 February 2020
Orbit: 920 x 1202 km, 28.2° (Epoch: 27 February)

Event Time Altitude Azimuth Distance (km) Brightness Sun altitude
Rises 08:20:29 0° 231° (SW) 4,087 8.1 11.6°
Reaches altitude 10° 08:23:46 10° 220° (SW) 3,123 7.6 12.1°
Maximum altitude 08:30:11 28° 164° (SSE) 2,036 7.6 13.2°
Drops below altitude 10° 08:36:27 10° 109° (ESE) 3,046 9.4 14.2°
Sets 08:39:36 0° 98° (E) 3,970 9.3 14.7°
